Погода в Стэмфорде

США     41°03′37″N   73°32′34″W
темп.,
°C
ветер,
м/с
пор.,
м/с
влажн.,
%
обл.,
%
осадки,
мм/ч
давл.,
гПа
погр.,
м
31 июля, сб
сб3123:00+19ссз610580 0.0 1014670
02:00+17ссз610580 0.0 1015449
05:00+16ссз35610 0.0 1015252
08:00+17сз22562 0.0 1016311
11:00+20зсз12480 0.0 1016774
14:00+23зсз24372 0.0 1015964
17:00+25ссз46390 0.0 10141208
20:00+23ссз12470 0.0 1014123
1 августа, вс
вс123:00+22ююв12540 0.0 1015200
02:00+19св33640 0.0 1015160
05:00+19ссв22680 0.0 1015155
08:00+20с12640 0.0 1015250
11:00+24ю245210 0.0 1014871
14:00+26ю775289 0.0 10131301
17:00+24ю6763100 0.0 10121199
20:00+22ю6774100 0.0 1011907
2 августа, пн
пн223:00+21ю468583 0.4 1010504
02:00+21юз478995 2.1 1008577
05:00+20з579099 0.2 1008567
08:00+20зсз610770 0.2 1010728
11:00+22зсз78561 0.0 10111330
14:00+24сз785314 0.0 10111558
17:00+25ссз68501 0.0 10131381
20:00+23ссв46590 0.0 1015619
3 августа, вт
вт323:00+21ссз345899 0.0 1017182
02:00+19с346380 0.0 1017155
05:00+18с356498 0.0 1018224
08:00+19св3465100 0.0 1019342
11:00+21всв2264100 0.0 1020466
14:00+22ссв3263100 0.0 1019522
17:00+23в3260100 0.0 1018501
20:00+23ююв3360100 0.0 1018481
4 августа, ср
ср423:00+22ю3464100 0.0 1019400
02:00+21ююз1167100 0.0 1019259
05:00+20ссв1170100 0.0 1019186
08:00+20ссв2273100 0.0 1021261
11:00+22всв2266100 0.0 1022567
14:00+22в2264100 0.0 1021779
17:00+24в4458100 0.0 1021307
20:00+22ююв5570100 0.0 1022464